(220192) = 2002 VL11

Discovered at Palomar on 2002-11-01 by NEAT.

Orbit

Orbit type: Main Belt

Note: WebGL enabled browser required.

epoch2023-09-13.0
epoch JD2460200.5
perihelion date2020-11-18.18482
perihelion JD2459171.68482
argument of perihelion (°)297.21412
ascending node (°)49.80631
inclination (°)3.24039
eccentricity0.2396395
perihelion distance (AU)1.8156822
Tisserand w.r.t. Jupiter3.5
ΔV w.r.t. Earth (km/sec)8.5
semimajor axis (AU)2.3879229
mean anomaly (°)274.79623
mean daily motion (°/day)0.26709970
aphelion distance (AU)2.960
period (years)3.69
P-vector [x]0.97336412
P-vector [y]-0.18523229
P-vector [z]-0.13509737
Q-vector [x]0.22516210
Q-vector [y]0.88332511
Q-vector [z]0.41114327
absolute magnitude17.03
phase slope0.15
uncertainty0
referenceMPEC 2024-A65
observations used314
oppositions16
arc length (days)9034
first opposition used1998
last opposition used2023
residual rms (arc-secs)0.80
perturbers coarse indicatorM-v
perturbers precise indicator003Ek
first observation date used1998-08-17.0
last observation date used2023-05-12.0
computer nameMPCLINUX
JD of orbit computation2456731.620219
perihelion JD uncertainty (days)5.6401E-05
argument of perihelion uncertainty (°)8.5320E-05
ascending node uncertainty (°)8.3887E-05
inclination uncertainty (°)8.2284E-06
eccentricity uncertainty 6.4039E-08
perihelion distance uncertainty (AU)1.5273E-07
Minimum Orbit Intersection Distances (in AU)
for orbit epoch: 2460200.5, reference: E2024-A65
Mercury1.42975
Venus1.08841
Earth0.81115
Mars0.43213
Jupiter2.45471
Saturn6.35314
Uranus15.4888
Neptune27.5431

Observations

322 total observations over interval: 1998 08 17.35086 – 2023 05 12.334206
These data are available for download (format description).

Date (UT) J2000 RA J2000 Dec Magn Location Ref
1998 08 17.35086 22 33 45.41 -16 41 35.5 18.6   704 – Lincoln Laboratory ETS, New Mexico MPS 213083
1998 08 17.37215 22 33 44.41 -16 41 41.9 19.3   704 – Lincoln Laboratory ETS, New Mexico MPS 213083
1998 08 17.39322 22 33 43.55 -16 41 47.9 19.3   704 – Lincoln Laboratory ETS, New Mexico MPS 213083
1998 08 17.41430 22 33 42.63 -16 41 53.7 19.5   704 – Lincoln Laboratory ETS, New Mexico MPS 213083
2001 04 26.32039 14 11 29.91 -11 49 15.3 20.9 V 691 – Steward Observatory, Kitt Peak-Spacewatch MPS 196324
2001 04 26.34220 14 11 28.53 -11 49 09.9 20.8 V 691 – Steward Observatory, Kitt Peak-Spacewatch MPS 196324
2001 04 26.36395 14 11 27.15 -11 49 04.4 21.1 V 691 – Steward Observatory, Kitt Peak-Spacewatch MPS 196324
2002 10 28.34192 03 46 05.83 +19 33 02.3 20.4 V 291 – LPL/Spacewatch II MPS 68178
2002 10 28.37070 03 46 04.19 +19 33 01.4 20.6 V 291 – LPL/Spacewatch II MPS 68178
2002 10 28.39535 03 46 02.71 +19 32 59.8 20.2 V 291 – LPL/Spacewatch II MPS 68178
2002 11 01.41206 03 42 13.94 +19 30 09.2 19.6   644 – Palomar Mountain/NEAT MPS 66374
2002 11 01.42728 03 42 12.97 +19 30 08.7 19.7   644 – Palomar Mountain/NEAT MPS 66374
2002 11 01.44004 03 42 12.14 +19 30 07.4 19.9   644 – Palomar Mountain/NEAT MPS 66374
2002 11 05.23079 03 38 17.45 +19 26 10.5 19.1   704 – Lincoln Laboratory ETS, New Mexico MPS 66374
2002 11 05.26509 03 38 15.15 +19 26 07.2 19.5   704 – Lincoln Laboratory ETS, New Mexico MPS 66374
2002 11 05.28268 03 38 14.16 +19 26 07.0 19.4   704 – Lincoln Laboratory ETS, New Mexico MPS 66374
2002 11 05.29994 03 38 12.87 +19 26 05.4 19.2   704 – Lincoln Laboratory ETS, New Mexico MPS 66374
2002 11 06.24586 03 37 12.12 +19 24 55.9 19.0   704 – Lincoln Laboratory ETS, New Mexico MPS 66374
2002 11 06.26252 03 37 10.99 +19 24 54.2 19.1   704 – Lincoln Laboratory ETS, New Mexico MPS 66374
2002 11 06.27918 03 37 09.82 +19 24 53.6 19.3   704 – Lincoln Laboratory ETS, New Mexico MPS 66374
2002 11 06.29585 03 37 08.69 +19 24 52.5 19.2   704 – Lincoln Laboratory ETS, New Mexico MPS 66374
2002 11 06.31257 03 37 07.61 +19 24 51.7 19.0   704 – Lincoln Laboratory ETS, New Mexico MPS 66374
2002 11 14.25438 03 28 18.53 +19 13 01.2 19.5   704 – Lincoln Laboratory ETS, New Mexico MPS 66374
2002 11 14.27253 03 28 17.33 +19 12 59.1 19.6   704 – Lincoln Laboratory ETS, New Mexico MPS 66374
2002 11 14.29043 03 28 15.99 +19 12 56.2 19.7   704 – Lincoln Laboratory ETS, New Mexico MPS 66374
2002 11 14.32627 03 28 13.54 +19 12 52.9 19.6   704 – Lincoln Laboratory ETS, New Mexico MPS 66374
2002 11 23.23681 03 18 33.07 +18 57 17.7 19.8   644 – Palomar Mountain/NEAT MPS 68178
2002 11 23.25974 03 18 31.60 +18 57 15.6 19.1   644 – Palomar Mountain/NEAT MPS 68178
2002 11 23.28415 03 18 30.04 +18 57 13.2 19.4   644 – Palomar Mountain/NEAT MPS 68178
2002 11 27.29525 03 14 31.41 +18 50 23.4 19.3 R 699 – Lowell Observatory-LONEOS MPS 68178
2002 11 27.31142 03 14 30.35 +18 50 21.2   699 – Lowell Observatory-LONEOS MPS 68178
2002 11 27.32746 03 14 29.41 +18 50 19.9   699 – Lowell Observatory-LONEOS MPS 68178
2002 11 27.34348 03 14 28.43 +18 50 15.8   699 – Lowell Observatory-LONEOS MPS 68178
2002 12 02.24407 03 10 07.85 +18 42 46.7 19.6   704 – Lincoln Laboratory ETS, New Mexico MPS 68178
2002 12 02.25866 03 10 07.09 +18 42 45.6 20.0   704 – Lincoln Laboratory ETS, New Mexico MPS 68178
2002 12 02.27323 03 10 06.37 +18 42 45.0 19.6   704 – Lincoln Laboratory ETS, New Mexico MPS 68178
2002 12 02.28783 03 10 05.52 +18 42 43.4 19.2   704 – Lincoln Laboratory ETS, New Mexico MPS 68178
2002 12 10.23233 03 04 32.89 +18 34 02.7 20.1   704 – Lincoln Laboratory ETS, New Mexico MPS 68178
2002 12 10.24763 03 04 32.37 +18 34 02.1 19.7   704 – Lincoln Laboratory ETS, New Mexico MPS 68178
2002 12 10.26296 03 04 31.82 +18 34 00.7 19.6   704 – Lincoln Laboratory ETS, New Mexico MPS 68178
2002 12 10.27831 03 04 31.29 +18 33 59.8 20.0   704 – Lincoln Laboratory ETS, New Mexico MPS 68178
2006 10 23.40140 07 12 06.37 +24 30 58.5 21.1 V G96 – Mt. Lemmon Survey MPS 196324
2006 10 23.40878 07 12 06.66 +24 30 59.1 21.1 V G96 – Mt. Lemmon Survey MPS 196324
2006 10 23.41625 07 12 06.94 +24 30 59.2 21.6 V G96 – Mt. Lemmon Survey MPS 196324
2006 10 23.42369 07 12 07.23 +24 30 59.6 21.2 V G96 – Mt. Lemmon Survey MPS 196324
2006 12 13.31140 07 02 24.72 +26 24 28.6 20.7 V 691 – Steward Observatory, Kitt Peak-Spacewatch MPS 196324
2006 12 13.32874 07 02 23.63 +26 24 31.8 20.3 V 691 – Steward Observatory, Kitt Peak-Spacewatch MPS 196324
2006 12 13.34607 07 02 22.54 +26 24 34.7 20.5 V 691 – Steward Observatory, Kitt Peak-Spacewatch MPS 196324
2008 02 28.28132 12 36 46.27 +00 00 09.5 21.2 V 691 – Steward Observatory, Kitt Peak-Spacewatch MPS 239354
2008 02 28.29893 12 36 45.58 +00 00 14.5 21.4 V 691 – Steward Observatory, Kitt Peak-Spacewatch MPS 239354
2008 02 28.31653 12 36 44.88 +00 00 19.2 21.2 V 691 – Steward Observatory, Kitt Peak-Spacewatch MPS 239354
2008 03 27.34316 12 13 10.84 +02 27 00.5 20.8 V G96 – Mt. Lemmon Survey MPS 243991
2008 03 27.35036 12 13 10.41 +02 27 02.9 20.7 V G96 – Mt. Lemmon Survey MPS 243991
2008 03 27.35764 12 13 10.02 +02 27 05.1 21.1 V G96 – Mt. Lemmon Survey MPS 243991
2008 03 27.36499 12 13 09.55 +02 27 07.6 21.0 V G96 – Mt. Lemmon Survey MPS 243991
2009 07 27.32981 21 12 43.27 -23 14 23.7 18.8 V 703 – Catalina Sky Survey MPS 290149
2009 07 27.33762 21 12 42.87 -23 14 25.6 18.4 V 703 – Catalina Sky Survey MPS 290149
2009 07 27.34546 21 12 42.37 -23 14 28.4 18.2 V 703 – Catalina Sky Survey MPS 290149
2009 07 27.35332 21 12 42.08 -23 14 28.6 18.1 V 703 – Catalina Sky Survey MPS 290149
2009 09 24.49125 20 47 02.61 -23 37 54.1 19.4 V E12 – Siding Spring Survey MPS 295771
2009 09 24.49979 20 47 02.94 -23 37 50.5 20.1 V E12 – Siding Spring Survey MPS 295771
2009 09 24.50834 20 47 03.12 -23 37 47.6 19.5 V E12 – Siding Spring Survey MPS 295771
2009 09 24.51691 20 47 03.37 -23 37 45.9 19.6 V E12 – Siding Spring Survey MPS 295771
2011 01 26.35062 08 59 21.58 +22 13 08.7 21.1 V G96 – Mt. Lemmon Survey MPS 368382
2011 01 26.35757 08 59 21.15 +22 13 11.2 20.5 V G96 – Mt. Lemmon Survey MPS 368382
2011 01 26.36458 08 59 20.68 +22 13 13.2 20.3 V G96 – Mt. Lemmon Survey MPS 368382
2011 01 26.37159 08 59 20.14 +22 13 14.8 20.6 V G96 – Mt. Lemmon Survey MPS 368382
2011 01 27.46945 08 58 09.33 +22 18 21.3 21.4 V 291 – LPL/Spacewatch II MPS 368382
2011 01 27.47714 08 58 08.86 +22 18 23.4 21.1 V 291 – LPL/Spacewatch II MPS 368382
2011 01 27.48108 08 58 08.56 +22 18 24.6 21.0 V 291 – LPL/Spacewatch II MPS 368382
2011 01 30.47465 08 54 54.620 +22 31 57.83 21.0 w F51 – Pan-STARRS 1, Haleakala MPS 379562
2011 01 30.50601 08 54 52.517 +22 32 05.94 21.0 w F51 – Pan-STARRS 1, Haleakala MPS 379562
2011 01 30.52110 08 54 51.507 +22 32 09.85 21.0 w F51 – Pan-STARRS 1, Haleakala MPS 379562
2012 03 28.32896 14 07 40.78 -10 40 30.3 20.6 V 691 – Steward Observatory, Kitt Peak-Spacewatch MPS 420021
2012 03 28.34672 14 07 40.00 -10 40 26.2 21.0 V 691 – Steward Observatory, Kitt Peak-Spacewatch MPS 420021
2012 03 28.36450 14 07 39.19 -10 40 22.4 21.2 V 691 – Steward Observatory, Kitt Peak-Spacewatch MPS 420021
2012 04 13.40814 13 53 50.884 -09 36 07.76 20.9 g F51 – Pan-STARRS 1, Haleakala MPS 421673
2012 04 13.41977 13 53 50.181 -09 36 04.60 21.1 g F51 – Pan-STARRS 1, Haleakala MPS 421673
2012 04 13.43206 13 53 49.444 -09 36 01.51 20.3 r F51 – Pan-STARRS 1, Haleakala MPS 421673
2012 04 13.44306 13 53 48.792 -09 35 58.39 20.5 r F51 – Pan-STARRS 1, Haleakala MPS 421673
2012 04 25.34678 13 42 06.329 -08 42 12.47 20.9 g F51 – Pan-STARRS 1, Haleakala MPS 422678
2012 04 25.35793 13 42 05.643 -08 42 09.47 21.0 g F51 – Pan-STARRS 1, Haleakala MPS 422678
2012 04 26.40611 13 41 04.171 -08 37 31.59 20.6 r F51 – Pan-STARRS 1, Haleakala MPS 422678
2012 04 26.41667 13 41 03.539 -08 37 28.73 20.6 r F51 – Pan-STARRS 1, Haleakala MPS 422678
2013 09 02.40839 02 47 54.54 +13 02 47.5 19.4 V 703 – Catalina Sky Survey MPS 475887
2013 09 02.41403 02 47 54.72 +13 02 48.4 19.9 V 703 – Catalina Sky Survey MPS 475887
2013 09 02.41956 02 47 54.90 +13 02 50.7 19.8 V 703 – Catalina Sky Survey MPS 475887
2013 09 02.42527 02 47 55.07 +13 02 50.7 19.5 V 703 – Catalina Sky Survey MPS 475887
